contact:dominique.lefevre@mio.osupytheas.fr, maurice.libes@osupytheas.fr, didier.mallarino@osupytheas.fr
Project:EMSO http://www.emso-fr.org/EMSO-France
Depth: 2436.0 m
Title:EMSO Ligure Ouest : Data MII capteur MICROCAT
DateTime_Computer,Latitude,Longitude,Temperature,Conductivity,Pressure,DateTime_Instrument
DateTime_Computer,Latitude,Longitude,degC,S m-1,dbar,DateTime_Instrument
2020-05-06T00:00:57Z,42.805,6.029,13.2999,4.60049,2469.96,2020-5-06T02:01:38Z
2020-05-06T00:04:00Z,42.805,6.029,13.3009,4.60036,2469.923,2020-5-06T02:04:41Z
2020-05-06T00:07:03Z,42.805,6.029,13.3011,4.60014,2469.947,2020-5-06T02:07:45Z
2020-05-06T00:10:07Z,42.805,6.029,13.3015,4.60043,2469.923,2020-5-06T02:10:48Z
2020-05-06T00:13:10Z,42.805,6.029,13.3013,4.60049,2469.9,2020-5-06T02:13:51Z
2020-05-06T00:16:13Z,42.805,6.029,13.3014,4.60071,2469.9,2020-5-06T02:16:54Z
2020-05-06T00:19:16Z,42.805,6.029,13.3000,4.60036,2469.923,2020-5-06T02:19:58Z
2020-05-06T00:22:20Z,42.805,6.029,13.2990,4.60027,2469.96,2020-5-06T02:23:01Z
2020-05-06T00:25:23Z,42.805,6.029,13.2987,4.60074,2469.947,2020-5-06T02:26:04Z
2020-05-06T00:28:26Z,42.805,6.029,13.3011,4.60021,2469.914,2020-5-06T02:29:07Z
2020-05-06T00:31:29Z,42.805,6.029,13.2990,4.60046,2469.947,2020-5-06T02:32:11Z
2020-05-06T00:34:33Z,42.805,6.029,13.2996,4.60029,2469.937,2020-5-06T02:35:14Z
2020-05-06T00:37:36Z,42.805,6.029,13.2999,4.60014,2469.937,2020-5-06T02:38:17Z
2020-05-06T00:40:39Z,42.805,6.029,13.3004,4.60037,2469.923,2020-5-06T02:41:21Z
2020-05-06T00:43:43Z,42.805,6.029,13.3004,4.60026,2469.923,2020-5-06T02:44:24Z
2020-05-06T00:46:46Z,42.805,6.029,13.3010,4.60042,2469.947,2020-5-06T02:47:27Z
2020-05-06T00:49:49Z,42.805,6.029,13.2994,4.60059,2469.937,2020-5-06T02:50:30Z
2020-05-06T00:52:52Z,42.805,6.029,13.3005,4.60016,2469.96,2020-5-06T02:53:33Z
2020-05-06T00:55:55Z,42.805,6.029,13.3008,4.60017,2469.947,2020-5-06T02:56:37Z
2020-05-06T00:58:59Z,42.805,6.029,13.2986,4.60029,2469.937,2020-5-06T02:59:40Z
2020-05-06T01:02:02Z,42.805,6.029,13.3011,4.60037,2469.947,2020-5-06T03:02:43Z
2020-05-06T01:05:05Z,42.805,6.029,13.3010,4.60019,2469.923,2020-5-06T03:05:46Z
2020-05-06T01:08:09Z,42.805,6.029,13.2995,4.60117,2469.937,2020-5-06T03:08:50Z
2020-05-06T01:11:12Z,42.805,6.029,13.3019,4.60037,2469.947,2020-5-06T03:11:53Z
2020-05-06T01:14:15Z,42.805,6.029,13.3002,4.60066,2469.937,2020-5-06T03:14:56Z
2020-05-06T01:17:18Z,42.805,6.029,13.2986,4.60084,2469.96,2020-5-06T03:18:00Z
2020-05-06T01:20:22Z,42.805,6.029,13.3000,4.60073,2469.9,2020-5-06T03:21:03Z
2020-05-06T01:23:25Z,42.805,6.029,13.2982,4.60049,2469.96,2020-5-06T03:24:06Z
2020-05-06T01:26:28Z,42.805,6.029,13.2991,4.60008,2469.923,2020-5-06T03:27:09Z
2020-05-06T01:29:31Z,42.805,6.029,13.2985,4.60033,2469.97,2020-5-06T03:30:12Z
2020-05-06T01:32:34Z,42.805,6.029,13.2979,4.60028,2469.96,2020-5-06T03:33:16Z
2020-05-06T01:35:38Z,42.805,6.029,13.2986,4.60025,2469.96,2020-5-06T03:36:19Z
2020-05-06T01:38:41Z,42.805,6.029,13.2994,4.60033,2469.923,2020-5-06T03:39:22Z
2020-05-06T01:41:44Z,42.805,6.029,13.2999,4.60042,2469.96,2020-5-06T03:42:25Z
2020-05-06T01:44:47Z,42.805,6.029,13.3008,4.60028,2469.923,2020-5-06T03:45:29Z
2020-05-06T01:47:51Z,42.805,6.029,13.2989,4.60043,2469.947,2020-5-06T03:48:32Z
2020-05-06T01:50:54Z,42.805,6.029,13.3056,4.60046,2469.96,2020-5-06T03:51:35Z
2020-05-06T01:53:57Z,42.805,6.029,13.2990,4.60054,2469.947,2020-5-06T03:54:38Z
2020-05-06T01:57:00Z,42.805,6.029,13.3000,4.60037,2469.984,2020-5-06T03:57:42Z
2020-05-06T02:00:04Z,42.805,6.029,13.2998,4.60042,2469.984,2020-5-06T04:00:45Z
2020-05-06T02:03:07Z,42.805,6.029,13.3002,4.60057,2469.96,2020-5-06T04:03:48Z
2020-05-06T02:06:10Z,42.805,6.029,13.2997,4.60080,2469.984,2020-5-06T04:06:51Z
2020-05-06T02:09:13Z,42.805,6.029,13.3011,4.60022,2469.984,2020-5-06T04:09:54Z
2020-05-06T02:12:16Z,42.805,6.029,13.3018,4.60021,2469.984,2020-5-06T04:12:58Z
2020-05-06T02:15:20Z,42.805,6.029,13.3004,4.60029,2470.007,2020-5-06T04:16:01Z
2020-05-06T02:18:23Z,42.805,6.029,13.3036,4.60000,2470.03,2020-5-06T04:19:04Z
2020-05-06T02:21:26Z,42.805,6.029,13.3002,4.60002,2469.97,2020-5-06T04:22:07Z
2020-05-06T02:24:29Z,42.805,6.029,13.3005,4.60029,2469.97,2020-5-06T04:25:11Z
2020-05-06T02:27:33Z,42.805,6.029,13.2989,4.60067,2470.007,2020-5-06T04:28:14Z
2020-05-06T02:30:36Z,42.805,6.029,13.2995,4.60064,2469.993,2020-5-06T04:31:17Z
2020-05-06T02:33:39Z,42.805,6.029,13.2993,4.60067,2469.993,2020-5-06T04:34:20Z
2020-05-06T02:36:42Z,42.805,6.029,13.2998,4.60042,2470.04,2020-5-06T04:37:24Z
2020-05-06T02:39:46Z,42.805,6.029,13.3004,4.60039,2470.03,2020-5-06T04:40:27Z
2020-05-06T02:42:49Z,42.805,6.029,13.2988,4.60048,2470.03,2020-5-06T04:43:30Z
2020-05-06T02:45:52Z,42.805,6.029,13.2976,4.60033,2470.03,2020-5-06T04:46:33Z
2020-05-06T02:48:55Z,42.805,6.029,13.2976,4.60029,2470.03,2020-5-06T04:49:36Z
2020-05-06T02:51:59Z,42.805,6.029,13.2986,4.60039,2470.03,2020-5-06T04:52:40Z
2020-05-06T02:55:02Z,42.805,6.029,13.2992,4.60049,2469.993,2020-5-06T04:55:43Z
2020-05-06T02:58:05Z,42.805,6.029,13.2977,4.60064,2470.04,2020-5-06T04:58:46Z
2020-05-06T03:01:08Z,42.805,6.029,13.2985,4.60044,2469.984,2020-5-06T05:01:50Z
2020-05-06T03:04:12Z,42.805,6.029,13.2993,4.60051,2470.017,2020-5-06T05:04:53Z
2020-05-06T03:07:15Z,42.805,6.029,13.2988,4.60026,2470.017,2020-5-06T05:07:56Z
2020-05-06T03:10:18Z,42.805,6.029,13.2977,4.60037,2470.03,2020-5-06T05:11:00Z
2020-05-06T03:13:22Z,42.805,6.029,13.2981,4.60067,2470.017,2020-5-06T05:14:03Z
2020-05-06T03:16:25Z,42.805,6.029,13.2989,4.60029,2470.053,2020-5-06T05:17:06Z
2020-05-06T03:19:28Z,42.805,6.029,13.2993,4.60070,2470.04,2020-5-06T05:20:09Z
2020-05-06T03:22:31Z,42.805,6.029,13.2992,4.60060,2470.063,2020-5-06T05:23:12Z
2020-05-06T03:25:35Z,42.805,6.029,13.3014,4.60052,2470.077,2020-5-06T05:26:16Z
2020-05-06T03:28:38Z,42.805,6.029,13.2993,4.60082,2470.077,2020-5-06T05:29:19Z
2020-05-06T03:31:41Z,42.805,6.029,13.3000,4.60036,2470.1,2020-5-06T05:32:22Z
2020-05-06T03:34:45Z,42.805,6.029,13.2988,4.60087,2470.063,2020-5-06T05:35:26Z
2020-05-06T03:37:48Z,42.805,6.029,13.2997,4.60067,2470.063,2020-5-06T05:38:29Z
2020-05-06T03:40:51Z,42.805,6.029,13.3004,4.60065,2470.1,2020-5-06T05:41:32Z
2020-05-06T03:43:54Z,42.805,6.029,13.2986,4.60081,2470.077,2020-5-06T05:44:35Z
2020-05-06T03:46:57Z,42.805,6.029,13.3004,4.60054,2470.11,2020-5-06T05:47:39Z
2020-05-06T03:50:01Z,42.805,6.029,13.2993,4.60035,2470.087,2020-5-06T05:50:42Z
2020-05-06T03:53:04Z,42.805,6.029,13.2991,4.60021,2470.087,2020-5-06T05:53:45Z
2020-05-06T03:56:07Z,42.805,6.029,13.2981,4.60046,2470.124,2020-5-06T05:56:48Z
2020-05-06T03:59:10Z,42.805,6.029,13.2993,4.60049,2470.11,2020-5-06T05:59:52Z
2020-05-06T04:02:14Z,42.805,6.029,13.2995,4.60038,2470.124,2020-5-06T06:02:55Z
2020-05-06T04:05:17Z,42.805,6.029,13.3006,4.60054,2470.124,2020-5-06T06:05:58Z
2020-05-06T04:08:20Z,42.805,6.029,13.2989,4.60055,2470.063,2020-5-06T06:09:01Z
2020-05-06T04:11:23Z,42.805,6.029,13.3006,4.60057,2470.147,2020-5-06T06:12:05Z
2020-05-06T04:14:27Z,42.805,6.029,13.3004,4.60042,2470.133,2020-5-06T06:15:08Z
2020-05-06T04:17:30Z,42.805,6.029,13.3000,4.60024,2470.124,2020-5-06T06:18:11Z
2020-05-06T04:20:33Z,42.805,6.029,13.2995,4.60054,2470.11,2020-5-06T06:21:14Z
2020-05-06T04:23:37Z,42.805,6.029,13.3002,4.60039,2470.147,2020-5-06T06:24:18Z
2020-05-06T04:26:40Z,42.805,6.029,13.3008,4.60047,2470.11,2020-5-06T06:27:21Z
2020-05-06T04:29:43Z,42.805,6.029,13.2994,4.60040,2470.156,2020-5-06T06:30:24Z
2020-05-06T04:32:46Z,42.805,6.029,13.3003,4.60026,2470.147,2020-5-06T06:33:27Z
2020-05-06T04:35:50Z,42.805,6.029,13.3038,4.60047,2470.11,2020-5-06T06:36:31Z
2020-05-06T04:38:53Z,42.805,6.029,13.2993,4.60039,2470.171,2020-5-06T06:39:34Z
2020-05-06T04:41:56Z,42.805,6.029,13.2983,4.60064,2470.171,2020-5-06T06:42:37Z
2020-05-06T04:45:00Z,42.805,6.029,13.3023,4.60069,2470.124,2020-5-06T06:45:41Z
2020-05-06T04:48:03Z,42.805,6.029,13.2998,4.60049,2470.156,2020-5-06T06:48:44Z
2020-05-06T04:51:06Z,42.805,6.029,13.2984,4.60055,2470.11,2020-5-06T06:51:47Z
2020-05-06T04:54:10Z,42.805,6.029,13.2996,4.60039,2470.156,2020-5-06T06:54:51Z
2020-05-06T04:57:13Z,42.805,6.029,13.2993,4.60047,2470.171,2020-5-06T06:57:54Z
2020-05-06T05:00:16Z,42.805,6.029,13.2986,4.60040,2470.133,2020-5-06T07:00:57Z
2020-05-06T05:03:19Z,42.805,6.029,13.2997,4.60025,2470.171,2020-5-06T07:04:00Z
2020-05-06T05:06:22Z,42.805,6.029,13.2990,4.60071,2470.18,2020-5-06T07:07:04Z
2020-05-06T05:09:26Z,42.805,6.029,13.2986,4.60078,2470.156,2020-5-06T07:10:07Z
2020-05-06T05:12:29Z,42.805,6.029,13.2984,4.60040,2470.156,2020-5-06T07:13:10Z
2020-05-06T05:15:32Z,42.805,6.029,13.2989,4.60036,2470.133,2020-5-06T07:16:14Z
2020-05-06T05:18:36Z,42.805,6.029,13.3006,4.60028,2470.147,2020-5-06T07:19:17Z
2020-05-06T05:21:39Z,42.805,6.029,13.2984,4.60027,2470.133,2020-5-06T07:22:20Z
2020-05-06T05:24:42Z,42.805,6.029,13.2978,4.60029,2470.133,2020-5-06T07:25:23Z
2020-05-06T05:27:45Z,42.805,6.029,13.2983,4.60016,2470.18,2020-5-06T07:28:26Z
2020-05-06T05:30:49Z,42.805,6.029,13.2987,4.60021,2470.156,2020-5-06T07:31:30Z
2020-05-06T05:33:52Z,42.805,6.029,13.2982,4.60029,2470.18,2020-5-06T07:34:33Z
2020-05-06T05:36:55Z,42.805,6.029,13.2993,4.60032,2470.147,2020-5-06T07:37:36Z
2020-05-06T05:39:58Z,42.805,6.029,13.2979,4.60035,2470.18,2020-5-06T07:40:40Z
2020-05-06T05:43:02Z,42.805,6.029,13.2997,4.60037,2470.133,2020-5-06T07:43:43Z
2020-05-06T05:46:05Z,42.805,6.029,13.2979,4.60031,2470.11,2020-5-06T07:46:46Z
2020-05-06T05:49:08Z,42.805,6.029,13.2981,4.60039,2470.194,2020-5-06T07:49:49Z
2020-05-06T05:52:11Z,42.805,6.029,13.2991,4.60039,2470.18,2020-5-06T07:52:53Z
2020-05-06T05:55:15Z,42.805,6.029,13.2987,4.60046,2470.147,2020-5-06T07:55:56Z
2020-05-06T05:58:18Z,42.805,6.029,13.2993,4.60057,2470.171,2020-5-06T07:58:59Z
2020-05-06T06:01:22Z,42.805,6.029,13.2991,4.60053,2470.217,2020-5-06T08:02:03Z
2020-05-06T06:04:25Z,42.805,6.029,13.2990,4.60041,2470.147,2020-5-06T08:05:06Z
2020-05-06T06:07:28Z,42.805,6.029,13.2988,4.60041,2470.18,2020-5-06T08:08:09Z
2020-05-06T06:10:31Z,42.805,6.029,13.2996,4.60043,2470.171,2020-5-06T08:11:13Z
2020-05-06T06:13:35Z,42.805,6.029,13.2985,4.60039,2470.147,2020-5-06T08:14:16Z
2020-05-06T06:16:38Z,42.805,6.029,13.2996,4.60031,2470.147,2020-5-06T08:17:19Z
2020-05-06T06:19:41Z,42.805,6.029,13.3007,4.60052,2470.156,2020-5-06T08:20:23Z
2020-05-06T06:22:45Z,42.805,6.029,13.2988,4.60023,2470.171,2020-5-06T08:23:26Z
2020-05-06T06:25:48Z,42.805,6.029,13.2984,4.60031,2470.156,2020-5-06T08:26:29Z
2020-05-06T06:28:51Z,42.805,6.029,13.2987,4.60064,2470.171,2020-5-06T08:29:32Z
2020-05-06T06:31:54Z,42.805,6.029,13.2994,4.60053,2470.156,2020-5-06T08:32:36Z
2020-05-06T06:34:58Z,42.805,6.029,13.2991,4.60014,2470.18,2020-5-06T08:35:39Z
2020-05-06T06:38:01Z,42.805,6.029,13.2989,4.60020,2470.156,2020-5-06T08:38:42Z
2020-05-06T06:41:04Z,42.805,6.029,13.2983,4.60033,2470.18,2020-5-06T08:41:45Z
2020-05-06T06:44:07Z,42.805,6.029,13.2984,4.60013,2470.18,2020-5-06T08:44:49Z
2020-05-06T06:47:11Z,42.805,6.029,13.2976,4.60014,2470.171,2020-5-06T08:47:52Z
2020-05-06T06:50:14Z,42.805,6.029,13.2975,4.60016,2470.147,2020-5-06T08:50:55Z
2020-05-06T06:53:17Z,42.805,6.029,13.2985,4.60026,2470.156,2020-5-06T08:53:58Z
2020-05-06T06:56:20Z,42.805,6.029,13.2990,4.60012,2470.147,2020-5-06T08:57:02Z
2020-05-06T06:59:24Z,42.805,6.029,13.2981,4.60023,2470.156,2020-5-06T09:00:05Z
2020-05-06T07:02:27Z,42.805,6.029,13.2977,4.59999,2470.133,2020-5-06T09:03:08Z
2020-05-06T07:05:30Z,42.805,6.029,13.2982,4.60006,2470.147,2020-5-06T09:06:11Z
2020-05-06T07:08:33Z,42.805,6.029,13.2978,4.60014,2470.124,2020-5-06T09:09:15Z
2020-05-06T07:11:37Z,42.805,6.029,13.2982,4.60003,2470.156,2020-5-06T09:12:18Z
2020-05-06T07:14:40Z,42.805,6.029,13.2979,4.60016,2470.133,2020-5-06T09:15:21Z
2020-05-06T07:17:43Z,42.805,6.029,13.2984,4.60013,2470.147,2020-5-06T09:18:24Z
2020-05-06T07:20:46Z,42.805,6.029,13.2976,4.60021,2470.147,2020-5-06T09:21:27Z
2020-05-06T07:23:49Z,42.805,6.029,13.2980,4.60004,2470.133,2020-5-06T09:24:31Z
2020-05-06T07:26:53Z,42.805,6.029,13.2986,4.60016,2470.171,2020-5-06T09:27:34Z
2020-05-06T07:29:56Z,42.805,6.029,13.2986,4.59998,2470.133,2020-5-06T09:30:37Z
2020-05-06T07:32:59Z,42.805,6.029,13.2982,4.60002,2470.147,2020-5-06T09:33:40Z
2020-05-06T07:36:02Z,42.805,6.029,13.2984,4.60002,2470.133,2020-5-06T09:36:44Z
2020-05-06T07:39:06Z,42.805,6.029,13.2980,4.59999,2470.133,2020-5-06T09:39:47Z
2020-05-06T07:42:09Z,42.805,6.029,13.2977,4.60005,2470.133,2020-5-06T09:42:50Z
2020-05-06T07:45:12Z,42.805,6.029,13.2976,4.59994,2470.11,2020-5-06T09:45:53Z
2020-05-06T07:48:15Z,42.805,6.029,13.2984,4.59999,2470.147,2020-5-06T09:48:57Z
2020-05-06T07:51:19Z,42.805,6.029,13.2983,4.60008,2470.156,2020-5-06T09:52:00Z
2020-05-06T07:54:22Z,42.805,6.029,13.2976,4.60001,2470.133,2020-5-06T09:55:03Z
2020-05-06T07:57:25Z,42.805,6.029,13.2976,4.59993,2470.124,2020-5-06T09:58:06Z
2020-05-06T08:00:28Z,42.805,6.029,13.2986,4.59999,2470.133,2020-5-06T10:01:10Z
2020-05-06T08:03:32Z,42.805,6.029,13.2977,4.59999,2470.073,2020-5-06T10:04:13Z
2020-05-06T08:06:35Z,42.805,6.029,13.2984,4.60005,2470.11,2020-5-06T10:07:16Z
2020-05-06T08:09:38Z,42.805,6.029,13.2976,4.60006,2470.124,2020-5-06T10:10:19Z
2020-05-06T08:12:41Z,42.805,6.029,13.2990,4.60009,2470.124,2020-5-06T10:13:23Z
2020-05-06T08:15:45Z,42.805,6.029,13.2985,4.60017,2470.147,2020-5-06T10:16:26Z
2020-05-06T08:18:48Z,42.805,6.029,13.2987,4.60029,2470.11,2020-5-06T10:19:29Z
2020-05-06T08:21:51Z,42.805,6.029,13.2983,4.60011,2470.087,2020-5-06T10:22:32Z
2020-05-06T08:24:54Z,42.805,6.029,13.2979,4.60016,2470.124,2020-5-06T10:25:35Z
2020-05-06T08:27:57Z,42.805,6.029,13.2976,4.60010,2470.11,2020-5-06T10:28:39Z
2020-05-06T08:31:01Z,42.805,6.029,13.2981,4.59999,2470.11,2020-5-06T10:31:42Z
2020-05-06T08:34:04Z,42.805,6.029,13.2973,4.60002,2470.11,2020-5-06T10:34:45Z
2020-05-06T08:37:07Z,42.805,6.029,13.2975,4.60011,2470.087,2020-5-06T10:37:48Z
2020-05-06T08:40:10Z,42.805,6.029,13.2971,4.60003,2470.087,2020-5-06T10:40:51Z
2020-05-06T08:43:13Z,42.805,6.029,13.2976,4.60004,2470.11,2020-5-06T10:43:55Z
2020-05-06T08:46:17Z,42.805,6.029,13.2972,4.60003,2470.087,2020-5-06T10:46:58Z
2020-05-06T08:49:20Z,42.805,6.029,13.2980,4.60000,2470.077,2020-5-06T10:50:01Z
2020-05-06T08:52:23Z,42.805,6.029,13.2983,4.60008,2470.063,2020-5-06T10:53:05Z
2020-05-06T08:55:27Z,42.805,6.029,13.2983,4.60009,2470.063,2020-5-06T10:56:08Z
2020-05-06T08:58:30Z,42.805,6.029,13.2983,4.60006,2470.11,2020-5-06T10:59:11Z
2020-05-06T09:01:33Z,42.805,6.029,13.2983,4.60003,2470.063,2020-5-06T11:02:14Z
2020-05-06T09:04:36Z,42.805,6.029,13.2977,4.60009,2470.063,2020-5-06T11:05:18Z
2020-05-06T09:07:40Z,42.805,6.029,13.2969,4.60008,2470.053,2020-5-06T11:08:21Z
2020-05-06T09:10:43Z,42.805,6.029,13.2981,4.60014,2470.1,2020-5-06T11:11:24Z
2020-05-06T09:13:47Z,42.805,6.029,13.2978,4.60003,2470.063,2020-5-06T11:14:28Z
2020-05-06T09:16:50Z,42.805,6.029,13.2971,4.59996,2470.04,2020-5-06T11:17:31Z
2020-05-06T09:19:53Z,42.805,6.029,13.2974,4.60001,2470.04,2020-5-06T11:20:34Z
2020-05-06T09:22:56Z,42.805,6.029,13.2976,4.59999,2470.063,2020-5-06T11:23:38Z
2020-05-06T09:26:00Z,42.805,6.029,13.2974,4.59997,2470.087,2020-5-06T11:26:41Z
2020-05-06T09:29:03Z,42.805,6.029,13.2979,4.59992,2470.04,2020-5-06T11:29:44Z
2020-05-06T09:32:06Z,42.805,6.029,13.2974,4.59980,2470.04,2020-5-06T11:32:47Z
2020-05-06T09:35:09Z,42.805,6.029,13.2979,4.60002,2470.017,2020-5-06T11:35:51Z
2020-05-06T09:38:13Z,42.805,6.029,13.2974,4.59991,2470.063,2020-5-06T11:38:54Z
2020-05-06T09:41:16Z,42.805,6.029,13.2977,4.59999,2470.03,2020-5-06T11:41:57Z
2020-05-06T09:44:19Z,42.805,6.029,13.2969,4.59998,2470.04,2020-5-06T11:45:01Z
2020-05-06T09:47:23Z,42.805,6.029,13.2974,4.59999,2470.04,2020-5-06T11:48:04Z
2020-05-06T09:50:26Z,42.805,6.029,13.2967,4.59990,2470.053,2020-5-06T11:51:07Z
2020-05-06T09:53:29Z,42.805,6.029,13.2974,4.59981,2470.04,2020-5-06T11:54:10Z
2020-05-06T09:56:32Z,42.805,6.029,13.2976,4.59998,2470.017,2020-5-06T11:57:14Z
2020-05-06T09:59:36Z,42.805,6.029,13.2974,4.59984,2470.007,2020-5-06T12:00:17Z
2020-05-06T10:02:39Z,42.805,6.029,13.2979,4.59980,2470.04,2020-5-06T12:03:20Z
2020-05-06T10:05:42Z,42.805,6.029,13.2970,4.59988,2470.017,2020-5-06T12:06:24Z
2020-05-06T10:08:45Z,42.805,6.029,13.2974,4.59988,2470.017,2020-5-06T12:09:27Z
2020-05-06T10:11:49Z,42.805,6.029,13.2974,4.59998,2470.007,2020-5-06T12:12:30Z
2020-05-06T10:14:52Z,42.805,6.029,13.2976,4.59995,2469.96,2020-5-06T12:15:33Z
2020-05-06T10:17:55Z,42.805,6.029,13.2977,4.59996,2469.993,2020-5-06T12:18:36Z
2020-05-06T10:20:59Z,42.805,6.029,13.2973,4.59991,2470.017,2020-5-06T12:21:40Z
2020-05-06T10:24:02Z,42.805,6.029,13.2976,4.59991,2469.993,2020-5-06T12:24:43Z
2020-05-06T10:27:05Z,42.805,6.029,13.2980,4.59990,2469.993,2020-5-06T12:27:46Z
2020-05-06T10:30:08Z,42.805,6.029,13.2978,4.59991,2470.007,2020-5-06T12:30:50Z
2020-05-06T10:33:12Z,42.805,6.029,13.2975,4.59992,2469.993,2020-5-06T12:33:53Z
2020-05-06T10:36:15Z,42.805,6.029,13.2981,4.59986,2469.993,2020-5-06T12:36:56Z
2020-05-06T10:39:18Z,42.805,6.029,13.2976,4.59998,2469.97,2020-5-06T12:39:59Z
2020-05-06T10:42:21Z,42.805,6.029,13.2974,4.59991,2469.97,2020-5-06T12:43:02Z
2020-05-06T10:45:24Z,42.805,6.029,13.2976,4.59985,2469.993,2020-5-06T12:46:06Z
2020-05-06T10:48:28Z,42.805,6.029,13.2976,4.59984,2469.97,2020-5-06T12:49:09Z
2020-05-06T10:51:31Z,42.805,6.029,13.2968,4.59986,2469.993,2020-5-06T12:52:12Z
2020-05-06T10:54:34Z,42.805,6.029,13.2973,4.59981,2469.993,2020-5-06T12:55:16Z
2020-05-06T10:57:38Z,42.805,6.029,13.2974,4.59992,2469.97,2020-5-06T12:58:19Z
2020-05-06T11:00:41Z,42.805,6.029,13.2979,4.60005,2470.007,2020-5-06T13:01:22Z
2020-05-06T11:03:44Z,42.805,6.029,13.2979,4.59996,2469.97,2020-5-06T13:04:25Z
2020-05-06T11:06:47Z,42.805,6.029,13.2972,4.59983,2469.947,2020-5-06T13:07:29Z
2020-05-06T11:09:51Z,42.805,6.029,13.2974,4.59995,2470.007,2020-5-06T13:10:32Z
2020-05-06T11:12:54Z,42.805,6.029,13.2978,4.59987,2469.96,2020-5-06T13:13:35Z
2020-05-06T11:15:57Z,42.805,6.029,13.2970,4.60006,2469.96,2020-5-06T13:16:38Z
2020-05-06T11:19:00Z,42.805,6.029,13.2978,4.60001,2469.97,2020-5-06T13:19:42Z
2020-05-06T11:22:04Z,42.805,6.029,13.2972,4.59981,2469.96,2020-5-06T13:22:45Z
2020-05-06T11:25:07Z,42.805,6.029,13.2977,4.59993,2469.984,2020-5-06T13:25:48Z
2020-05-06T11:28:10Z,42.805,6.029,13.2971,4.59977,2469.947,2020-5-06T13:28:51Z
2020-05-06T11:31:13Z,42.805,6.029,13.2973,4.59991,2469.947,2020-5-06T13:31:55Z
2020-05-06T11:34:17Z,42.805,6.029,13.2975,4.59983,2469.947,2020-5-06T13:34:58Z
2020-05-06T11:37:20Z,42.805,6.029,13.2975,4.59981,2469.937,2020-5-06T13:38:01Z
2020-05-06T11:40:24Z,42.805,6.029,13.2974,4.60003,2469.923,2020-5-06T13:41:05Z
2020-05-06T11:43:27Z,42.805,6.029,13.2971,4.59984,2469.9,2020-5-06T13:44:08Z
2020-05-06T11:46:30Z,42.805,6.029,13.2976,4.59997,2469.937,2020-5-06T13:47:11Z
2020-05-06T11:49:33Z,42.805,6.029,13.2970,4.59984,2469.9,2020-5-06T13:50:14Z
2020-05-06T11:52:36Z,42.805,6.029,13.2974,4.59994,2469.923,2020-5-06T13:53:18Z
2020-05-06T11:55:40Z,42.805,6.029,13.2990,4.60003,2469.914,2020-5-06T13:56:21Z
2020-05-06T11:58:43Z,42.805,6.029,13.2973,4.60000,2469.923,2020-5-06T13:59:24Z
2020-05-06T12:01:46Z,42.805,6.029,13.2974,4.59992,2469.937,2020-5-06T14:02:28Z
2020-05-06T12:04:50Z,42.805,6.029,13.2974,4.59991,2469.914,2020-5-06T14:05:31Z
2020-05-06T12:07:53Z,42.805,6.029,13.2979,4.60017,2469.937,2020-5-06T14:08:34Z
2020-05-06T12:10:56Z,42.805,6.029,13.2974,4.59982,2469.914,2020-5-06T14:11:38Z
2020-05-06T12:13:59Z,42.805,6.029,13.2982,4.59986,2469.914,2020-5-06T14:14:41Z
2020-05-06T12:17:03Z,42.805,6.029,13.2980,4.60000,2469.914,2020-5-06T14:17:44Z
2020-05-06T12:20:06Z,42.805,6.029,13.2973,4.59986,2469.9,2020-5-06T14:20:47Z
2020-05-06T12:23:09Z,42.805,6.029,13.2974,4.59984,2469.914,2020-5-06T14:23:50Z
2020-05-06T12:26:13Z,42.805,6.029,13.2968,4.60003,2469.914,2020-5-06T14:26:54Z
2020-05-06T12:29:16Z,42.805,6.029,13.2988,4.60015,2469.876,2020-5-06T14:29:57Z
2020-05-06T12:32:19Z,42.805,6.029,13.2982,4.59993,2469.89,2020-5-06T14:33:00Z
2020-05-06T12:35:22Z,42.805,6.029,13.2982,4.60018,2469.9,2020-5-06T14:36:03Z
2020-05-06T12:38:25Z,42.805,6.029,13.2971,4.59994,2469.876,2020-5-06T14:39:07Z
2020-05-06T12:41:29Z,42.805,6.029,13.2974,4.59988,2469.89,2020-5-06T14:42:10Z
2020-05-06T12:44:32Z,42.805,6.029,13.2971,4.59995,2469.9,2020-5-06T14:45:13Z
2020-05-06T12:47:35Z,42.805,6.029,13.2980,4.60003,2469.89,2020-5-06T14:48:16Z
2020-05-06T12:50:38Z,42.805,6.029,13.2971,4.59984,2469.89,2020-5-06T14:51:20Z
2020-05-06T12:53:42Z,42.805,6.029,13.2974,4.59996,2469.9,2020-5-06T14:54:23Z
2020-05-06T12:56:45Z,42.805,6.029,13.2978,4.59986,2469.89,2020-5-06T14:57:26Z
2020-05-06T12:59:48Z,42.805,6.029,13.2974,4.59985,2469.876,2020-5-06T15:00:29Z
2020-05-06T13:02:51Z,42.805,6.029,13.2974,4.59981,2469.937,2020-5-06T15:03:33Z
2020-05-06T13:05:55Z,42.805,6.029,13.2976,4.59990,2469.9,2020-5-06T15:06:36Z
2020-05-06T13:08:58Z,42.805,6.029,13.2974,4.59987,2469.876,2020-5-06T15:09:39Z
2020-05-06T13:12:01Z,42.805,6.029,13.2970,4.59985,2469.9,2020-5-06T15:12:42Z
2020-05-06T13:15:04Z,42.805,6.029,13.2971,4.59988,2469.9,2020-5-06T15:15:45Z
2020-05-06T13:18:08Z,42.805,6.029,13.2978,4.59994,2469.89,2020-5-06T15:18:49Z
2020-05-06T13:21:11Z,42.805,6.029,13.2970,4.59991,2469.923,2020-5-06T15:21:52Z
2020-05-06T13:24:14Z,42.805,6.029,13.2979,4.59996,2469.9,2020-5-06T15:24:55Z
2020-05-06T13:27:17Z,42.805,6.029,13.2980,4.60006,2469.9,2020-5-06T15:27:59Z
2020-05-06T13:30:21Z,42.805,6.029,13.2979,4.60016,2469.89,2020-5-06T15:31:02Z
2020-05-06T13:33:24Z,42.805,6.029,13.2972,4.59991,2469.89,2020-5-06T15:34:05Z
2020-05-06T13:36:27Z,42.805,6.029,13.2974,4.59992,2469.876,2020-5-06T15:37:08Z
2020-05-06T13:39:30Z,42.805,6.029,13.2978,4.59997,2469.914,2020-5-06T15:40:12Z
2020-05-06T13:42:34Z,42.805,6.029,13.2974,4.59996,2469.876,2020-5-06T15:43:15Z
2020-05-06T13:45:37Z,42.805,6.029,13.2973,4.59983,2469.89,2020-5-06T15:46:18Z
2020-05-06T13:48:40Z,42.805,6.029,13.2974,4.59987,2469.9,2020-5-06T15:49:22Z
2020-05-06T13:51:44Z,42.805,6.029,13.2974,4.59981,2469.876,2020-5-06T15:52:25Z
2020-05-06T13:54:47Z,42.805,6.029,13.2975,4.59980,2469.876,2020-5-06T15:55:28Z
2020-05-06T13:57:50Z,42.805,6.029,13.2968,4.59984,2469.937,2020-5-06T15:58:31Z
2020-05-06T14:00:53Z,42.805,6.029,13.2970,4.59981,2469.876,2020-5-06T16:01:34Z
2020-05-06T14:03:57Z,42.805,6.029,13.2975,4.59987,2469.9,2020-5-06T16:04:38Z
2020-05-06T14:07:00Z,42.805,6.029,13.2975,4.59995,2469.923,2020-5-06T16:07:41Z
2020-05-06T14:10:03Z,42.805,6.029,13.2969,4.59982,2469.923,2020-5-06T16:10:44Z
2020-05-06T14:13:06Z,42.805,6.029,13.2970,4.59976,2469.937,2020-5-06T16:13:47Z
2020-05-06T14:16:09Z,42.805,6.029,13.2968,4.59986,2469.9,2020-5-06T16:16:51Z
2020-05-06T14:19:13Z,42.805,6.029,13.2979,4.59981,2469.937,2020-5-06T16:19:54Z
2020-05-06T14:22:16Z,42.805,6.029,13.2971,4.59988,2469.923,2020-5-06T16:22:57Z
2020-05-06T14:25:19Z,42.805,6.029,13.2983,4.59990,2469.876,2020-5-06T16:26:00Z
2020-05-06T14:28:22Z,42.805,6.029,13.2974,4.59986,2469.923,2020-5-06T16:29:04Z
2020-05-06T14:31:26Z,42.805,6.029,13.2973,4.59987,2469.937,2020-5-06T16:32:07Z
2020-05-06T14:34:29Z,42.805,6.029,13.2973,4.59981,2469.937,2020-5-06T16:35:10Z
2020-05-06T14:37:32Z,42.805,6.029,13.2974,4.59981,2469.947,2020-5-06T16:38:13Z
2020-05-06T14:40:35Z,42.805,6.029,13.2975,4.59990,2469.923,2020-5-06T16:41:16Z
2020-05-06T14:43:39Z,42.805,6.029,13.2974,4.59983,2469.9,2020-5-06T16:44:20Z
2020-05-06T14:46:42Z,42.805,6.029,13.2975,4.59990,2469.933,2020-5-06T16:47:23Z
2020-05-06T14:49:45Z,42.805,6.029,13.2974,4.59996,2469.937,2020-5-06T16:50:26Z
2020-05-06T14:52:48Z,42.805,6.029,13.2971,4.59986,2469.923,2020-5-06T16:53:30Z
2020-05-06T14:55:52Z,42.805,6.029,13.2976,4.59987,2469.937,2020-5-06T16:56:33Z
2020-05-06T14:58:55Z,42.805,6.029,13.2982,4.60008,2469.96,2020-5-06T16:59:36Z
2020-05-06T15:01:58Z,42.805,6.029,13.2979,4.59996,2469.947,2020-5-06T17:02:39Z
2020-05-06T15:05:01Z,42.805,6.029,13.2980,4.59999,2469.947,2020-5-06T17:05:42Z
2020-05-06T15:08:05Z,42.805,6.029,13.2974,4.59991,2469.947,2020-5-06T17:08:46Z
2020-05-06T15:11:08Z,42.805,6.029,13.2971,4.59994,2469.97,2020-5-06T17:11:49Z
2020-05-06T15:14:11Z,42.805,6.029,13.2973,4.59996,2469.947,2020-5-06T17:14:52Z